Flag Weather past 2 weeks in Tórshavn, Faroe Islands, Faroe Islands

Now
46 °F

Passing clouds.


Feels Like: 37 °F
Forecast: N/A
Wind: 29 mph from East

Location: Soervaag / Vagar

Current Time: Oct 30, 2014 at 7:09:36 PM

Latest Report: Oct 30, 2014 at 6:20 PM


Visibility: N/A

Pressure: 29.89 "Hg

Humidity: 82%

Dew point: 41 °F

Location of TórshavnLocation

Historic Weather in Tórshavn — Graph

°F

Tórshavn temperature yesterday

Maximum temperature yesterday: 45 °F (at 2:20 PM)
Minimum temperature yesterday: 36 °F (at 6:50 PM)
Average temperature yesterday: 40 °F

Past Weeks' High & Low Weather Summary

 TemperatureHumidityPressure
High54 °F (Oct 18, 8:50 AM)100% (Oct 18, 1:20 AM)30.07 "Hg (Oct 18, 1:20 AM)
Low36 °F (Oct 26, 11:50 PM)53% (Oct 22, 1:20 AM)28.77 "Hg (Oct 26, 6:50 AM)
Average45 °F83%29.39 "Hg
* Reported Oct 15 6:20 PM — Oct 30 5:50 PM, Tórshavn, Weather by CustomWeather, © 2014

Note: Actual official high and low records may vary slightly from our data, if they occured in-between our weather recording intervals... More about our weather records

Advertising

Tórshavn weather history for previous 24 hours

 ConditionsComfort  
Time TempWeatherWind HumidityBarometerVisibility
5:50 PM
Oct 30
46 °FPassing clouds.28 mph82%29.89 "HgN/A
5:20 PM46 °FPartly sunny.26 mph82%29.92 "HgN/A
4:50 PM46 °FPartly sunny.25 mph82%29.92 "HgN/A
4:20 PM46 °FPartly sunny.26 mph82%29.92 "HgN/A
3:50 PM46 °FPartly sunny.28 mph82%29.92 "HgN/A
3:20 PM46 °FPartly sunny.29 mph82%29.89 "HgN/A
2:50 PM46 °FPartly sunny.26 mph82%29.92 "HgN/A
2:20 PM46 °FPartly sunny.26 mph82%29.95 "HgN/A
1:50 PM46 °FSprinkles. Overcast.29 mph82%29.95 "HgN/A
1:20 PM46 °FPartly sunny.24 mph76%29.95 "HgN/A
12:50 PM46 °FPartly sunny.21 mph76%29.95 "HgN/A
12:20 PM46 °FPartly sunny.21 mph76%29.98 "HgN/A
11:50 AM46 °FPartly sunny.23 mph76%29.98 "HgN/A
11:20 AM45 °FDrizzle. Partly sunny.24 mph81%29.98 "HgN/A
10:50 AM45 °FPartly sunny.24 mph81%29.98 "HgN/A
10:20 AM45 °FPartly sunny.24 mph81%29.98 "HgN/A
9:50 AM45 °FPartly sunny.23 mph81%29.98 "HgN/A
9:20 AM45 °FPartly sunny.22 mph81%29.98 "HgN/A
8:50 AM45 °FPassing clouds.21 mph76%30.01 "HgN/A
8:20 AM45 °FPartly cloudy.20 mph76%30.01 "HgN/A
7:50 AM45 °FPassing clouds.18 mph76%30.01 "HgN/A
7:20 AM45 °FPassing clouds.17 mph76%30.01 "HgN/A
6:50 AM43 °FPassing clouds.16 mph76%30.01 "HgN/A
6:20 AM43 °FPassing clouds.16 mph76%30.01 "HgN/A
5:50 AM43 °FPassing clouds.17 mph71%30.01 "HgN/A
5:20 AM43 °FPassing clouds.15 mph76%30.01 "HgN/A
4:50 AM43 °FPassing clouds.14 mph71%30.01 "HgN/A
4:20 AM41 °FPassing clouds.10 mph76%30.04 "HgN/A
3:50 AM43 °FPassing clouds.12 mph71%30.01 "HgN/A
3:20 AM41 °FPassing clouds.9 mph70%30.04 "HgN/A
2:50 AM41 °FPassing clouds.7 mph76%30.04 "HgN/A
2:20 AM39 °FPassing clouds.2 mph81%30.04 "HgN/A
1:50 AM41 °FPassing clouds.5 mph81%30.04 "HgN/A
1:20 AM39 °FPassing clouds.1 mph87%30.07 "HgN/A
12:50 AM41 °FOvercast.3 mph81%30.07 "HgN/A
12:20 AM41 °FOvercast.2 mph81%30.07 "HgN/A
11:50 PM
Oct 29
41 °FPassing clouds.2 mph76%30.07 "HgN/A
11:20 PM39 °FPassing clouds.1 mph81%30.07 "HgN/A
10:50 PM37 °FPassing clouds.2 mph87%30.07 "HgN/A
10:20 PM37 °FPassing clouds.3 mph81%30.07 "HgN/A
9:50 PM36 °FPassing clouds.2 mph87%30.07 "HgN/A
9:20 PM37 °FPassing clouds.2 mph87%30.07 "HgN/A
8:50 PM36 °FPassing clouds.No wind87%30.07 "HgN/A
8:20 PM36 °FPassing clouds.1 mph87%30.07 "HgN/A
7:50 PM36 °FPassing clouds.1 mph81%30.07 "HgN/A
7:20 PM36 °FChilly.3 mph87%30.04 "HgN/A
Weather by CustomWeather, © 2014

See weather overviewHow to use our weather pages